This is the latest recevied weather packets stored in our database for station/object SALT. If no packets are shown the sender has not sent any weather packets the latest 10 day(s).
| Time | Temp. | Humidity | Pressure | Rain* | Wind** | Luminosity | Snow |
|---|---|---|---|---|---|---|---|
| 1777484994 | 6.67° C | 55% | 1029.4 hPa | 0 mm | - | - | - |
| 1777484392 | 6.67° C | 54% | 1029.5 hPa | 0 mm | - | - | - |
| 1777483789 | 6.11° C | 58% | 1029.3 hPa | 0 mm | - | - | - |
| 1777483186 | 6.11° C | 58% | 1029.3 hPa | 0 mm | - | - | - |
| 1777482582 | 6.67° C | 55% | 1029.3 hPa | 0 mm | - | - | - |
| 1777481979 | 6.11° C | 57% | 1029.3 hPa | 0 mm | - | - | - |
| 1777481376 | 6.11° C | 60% | 1029.1 hPa | 0 mm | - | - | - |
| 1777480773 | 6.11° C | 59% | 1029.2 hPa | 0 mm | - | - | - |
| 1777480171 | 6.11° C | 53% | 1029.2 hPa | 0 mm | - | - | - |
| 1777479568 | 6.11° C | 53% | 1029.1 hPa | 0 mm | - | - | - |
| 1777478964 | 6.67° C | 53% | 1029 hPa | 0 mm | - | - | - |
| 1777478361 | 6.67° C | 54% | 1029.2 hPa | 0 mm | - | - | - |
| 1777477758 | 6.11° C | 55% | 1029.2 hPa | 0 mm | - | - | - |
| 1777477156 | 5.56° C | 60% | 1029.1 hPa | 0 mm | - | - | - |
| 1777476553 | 5.56° C | 59% | 1029.1 hPa | 0 mm | - | - | - |
| 1777475950 | 5.56° C | 62% | 1029.1 hPa | 0 mm | - | - | - |
| 1777475346 | 5° C | 63% | 1029 hPa | 0 mm | - | - | - |
| 1777474743 | 5° C | 63% | 1029.1 hPa | 0 mm | - | - | - |
| 1777474140 | 4.44° C | 65% | 1029 hPa | 0 mm | - | - | - |
| 1777473538 | 4.44° C | 66% | 1028.9 hPa | 0 mm | - | - | - |
| 1777472935 | 4.44° C | 66% | 1028.8 hPa | 0 mm | - | - | - |
| 1777472332 | 4.44° C | 67% | 1028.7 hPa | 0 mm | - | - | - |
| 1777471728 | 3.89° C | 68% | 1028.7 hPa | 0 mm | - | - | - |
| 1777471125 | 3.89° C | 68% | 1028.6 hPa | 0 mm | - | - | - |
| 1777470521 | 3.33° C | 66% | 1028.6 hPa | 0 mm | - | - | - |
* Rain latest 24 hours (hover to see other rain measurements)
** Current wind speed in m/s (hover to see current wind gust speed)